Simultaneous Nadir Overpasses (SNOs) Predictions

Prediction of SNOs between METOP-A and NOAA-19 Satellite Orbit:

Table of predicted SNOs for the next 14.0 days since TLE Epoch: 2/28/2014
Index Date (METOP-A) Time (METOP-A) Lat,Lon (METOP-A) SZA (METOP-A ) Date (NOAA-19) Time (NOAA-19) Lat,Lon (NOAA-19) SZA (NOAA-19 ) Distance(km) Time Diff (sec)
1 03/08/2014 04:57:36 74.42, 100.76 79.39 03/08/2014 04:56:27 74.42, 98.55 79.49 66.02 69
2 03/08/2014 05:48:27 -73.98, -93.02 101.03 03/08/2014 05:47:22 -73.98, -93.08 101.00 1.90 65
3 03/08/2014 06:39:07 73.95, 74.25 78.94 03/08/2014 06:38:21 73.94, 74.29 78.94 1.98 46
4 03/08/2014 07:29:49 -73.95,-118.42 101.07 03/08/2014 07:29:25 -73.94,-118.48 101.08 2.68 24
5 03/08/2014 08:20:29 73.93, 48.86 78.90 03/08/2014 08:20:25 73.94, 48.76 78.91 3.41 4
6 03/08/2014 09:11:12 -73.88,-143.93 101.17 03/08/2014 09:11:28 -73.89,-143.89 101.16 1.96 16
7 03/08/2014 10:01:51 73.91, 23.46 78.85 03/08/2014 10:02:28 73.90, 23.35 78.84 3.49 37
8 03/08/2014 10:52:34 -73.86,-169.33 101.21 03/08/2014 10:53:31 -73.85,-169.29 101.23 1.28 57
9 03/08/2014 11:43:16 73.73, -2.29 78.67 03/08/2014 11:44:29 73.76, -1.81 78.66 15.02 73




NCC Satellite Simultaneous Nadir Overpasses (SNOs) Prediction Service
